Weather History for KLRU - July, 2013

Change the Weather History Date:

Tuesday, July 9, 2013

  Actual Average Record
Temperature  
Mean Temperature 85 °F -  
Max Temperature 97 °F 93 °F 100 °F (2003)
Min Temperature 73 °F 69 °F 62 °F (2015)
Cooling Degree Days 20    
Growing Degree Days 35 (Base 50)    
Moisture  
Dew Point 51 °F    
Average Humidity 32    
Maximum Humidity 51    
Minimum Humidity 19    
Precipitation  
Precipitation 0.00 in - - ()
Sea Level Pressure  
Sea Level Pressure 30.14 in    
Wind  
Wind Speed 5 mph (ESE)    
Max Wind Speed 13 mph    
Max Gust Speed 17 mph    
Visibility 10 miles    
Events      
Averages and records for this station are not official NWS values.
T = Trace of Precipitation, MM = Missing Value Source: NWS Daily Summary

Daily Weather History Graph

Daily Weather History Graph

Search for Another Location

Airport or City:

Trip Planner

Search our weather history database for the weather conditions in past years. The results will help you decide how hot, cold, wet, or windy it might be!

Date:

Astronomy

Jul. 09, 2013 Rise Set
Actual Time 6:08 AM MDT 8:17 PM MDT
Civil Twilight 5:40 AM MDT 8:45 PM MDT
Nautical Twilight 5:06 AM MDT 9:19 PM MDT
Astronomical Twilight 4:29 AM MDT 9:56 PM MDT
Moon 7:27 AM MDT (7/9) 9:05 PM MDT (7/9)
Length of Visible Light 15h 04m
Length of Day
14h 08m
New Moon, 2% of the Moon is Illuminated
Jul 9
New Moon
Jul 15
First Quarter
Jul 22
Full
Jul 29
Last Quarter
Aug 6
New

Hourly Weather History & Observations

Time (MDT) Temp. Heat Index Dew Point Humidity Pressure Visibility Wind Dir Wind Speed Gust Speed Precip Events Conditions
12:15 AM 80.1 °F 80.1 °F 54.3 °F 41% 30.16 in 10.0 mi Calm Calm - N/A   Clear
12:35 AM 79.3 °F - 54.1 °F 42% 30.16 in 10.0 mi ESE 3.5 mph - N/A   Clear
12:55 AM 77.9 °F - 53.6 °F 43% 30.16 in 10.0 mi Calm Calm - N/A   Clear
1:15 AM 77.4 °F - 53.2 °F 43% 30.18 in 10.0 mi Calm Calm - N/A   Clear
1:35 AM 79.0 °F - 53.8 °F 42% 30.18 in 10.0 mi SE 4.6 mph - N/A   Mostly Cloudy
1:55 AM 79.9 °F - 53.6 °F 40% 30.18 in 10.0 mi ESE 6.9 mph - N/A   Overcast
2:15 AM 80.1 °F 80.0 °F 54.0 °F 40% 30.18 in 10.0 mi East 8.1 mph - N/A   Overcast
2:35 AM 79.3 °F - 54.5 °F 42% 30.18 in 10.0 mi ESE 9.2 mph - N/A   Mostly Cloudy
2:55 AM 79.0 °F - 54.5 °F 43% 30.16 in 10.0 mi ESE 8.1 mph - N/A   Mostly Cloudy
3:15 AM 78.8 °F - 54.5 °F 43% 30.16 in 10.0 mi ESE 10.4 mph - N/A   Mostly Cloudy
3:35 AM 78.4 °F - 54.5 °F 43% 30.16 in 10.0 mi ESE 8.1 mph - N/A   Clear
3:55 AM 77.5 °F - 54.5 °F 45% 30.16 in 10.0 mi ESE 5.8 mph - N/A   Clear
4:15 AM 77.0 °F - 54.5 °F 46% 30.16 in 10.0 mi SE 5.8 mph - N/A   Scattered Clouds
4:35 AM 76.5 °F - 54.9 °F 47% 30.16 in 10.0 mi ESE 4.6 mph - N/A   Mostly Cloudy
4:55 AM 76.1 °F - 54.9 °F 48% 30.16 in 10.0 mi ESE 3.5 mph - N/A   Scattered Clouds
5:15 AM 75.7 °F - 54.9 °F 48% 30.16 in 10.0 mi ESE 3.5 mph - N/A   Clear
5:35 AM 74.8 °F - 54.5 °F 49% 30.16 in 10.0 mi East 3.5 mph - N/A   Clear
5:55 AM 75.0 °F - 54.5 °F 49% 30.16 in 10.0 mi Calm Calm - N/A   Clear
6:15 AM 74.7 °F - 54.7 °F 50% 30.17 in 10.0 mi East 3.5 mph - N/A   Clear
6:35 AM 73.4 °F - 54.5 °F 51% 30.17 in 10.0 mi Calm Calm - N/A   Clear
6:55 AM 74.3 °F - 54.0 °F 49% 30.18 in 10.0 mi Calm Calm - N/A   Scattered Clouds
7:15 AM 76.3 °F - 54.3 °F 46% 30.19 in 10.0 mi Calm Calm - N/A   Mostly Cloudy
7:35 AM 78.1 °F - 54.7 °F 44% 30.20 in 10.0 mi Calm Calm - N/A   Mostly Cloudy
7:55 AM 79.2 °F - 54.7 °F 43% 30.20 in 10.0 mi Calm Calm - N/A   Scattered Clouds
8:15 AM 80.8 °F 80.5 °F 54.5 °F 40% 30.21 in 10.0 mi ESE 4.6 mph - N/A   Clear
8:35 AM 81.1 °F 80.8 °F 54.7 °F 40% 30.22 in 10.0 mi Calm Calm - N/A   Clear
8:55 AM 82.4 °F 81.4 °F 54.0 °F 37% 30.22 in 10.0 mi Calm Calm - N/A   Clear
9:15 AM 82.8 °F 81.7 °F 53.8 °F 37% 30.22 in 10.0 mi East 5.8 mph - N/A   Clear
9:35 AM 82.9 °F 81.8 °F 53.6 °F 36% 30.22 in 10.0 mi ESE 5.8 mph - N/A   Clear
9:55 AM 84.4 °F 82.9 °F 53.8 °F 35% 30.21 in 10.0 mi East 3.5 mph - N/A   Clear
10:15 AM 85.5 °F 83.7 °F 53.4 °F 33% 30.21 in 10.0 mi ESE 3.5 mph - N/A   Clear
10:35 AM 86.0 °F - 52.2 °F 31% 30.21 in 10.0 mi Calm Calm - N/A   Clear
10:55 AM 86.4 °F - 51.6 °F 30% 30.20 in 10.0 mi East 4.6 mph - N/A   Clear
11:15 AM 88.2 °F - 52.0 °F 29% 30.20 in 10.0 mi Calm Calm - N/A   Clear
11:35 AM 88.5 °F - 52.0 °F 29% 30.20 in 10.0 mi North 6.9 mph - N/A   Clear
11:55 AM 88.9 °F - 51.8 °F 28% 30.19 in 10.0 mi ENE 4.6 mph - N/A   Clear
12:15 PM 90.9 °F - 52.0 °F 26% 30.19 in 10.0 mi NE 4.6 mph - N/A   Clear
12:35 PM 91.8 °F - 52.2 °F 26% 30.18 in 10.0 mi ENE 5.8 mph - N/A   Clear
12:55 PM 90.5 °F - 52.0 °F 27% 30.18 in 10.0 mi SW 4.6 mph - N/A   Clear
1:15 PM 94.1 °F - 51.1 °F 23% 30.16 in 10.0 mi East 6.9 mph - N/A   Clear
1:35 PM 93.9 °F - 50.7 °F 23% 30.16 in 10.0 mi NNE 8.1 mph 16.1 mph N/A   Scattered Clouds
1:55 PM 93.9 °F - 50.7 °F 23% 30.15 in 10.0 mi ESE 6.9 mph - N/A   Scattered Clouds
2:15 PM 95.4 °F - 50.0 °F 21% 30.14 in 10.0 mi NNE 10.4 mph - N/A   Scattered Clouds
2:35 PM 95.4 °F - 50.4 °F 22% 30.13 in 10.0 mi East 5.8 mph - N/A   Clear
2:55 PM 95.7 °F - 50.2 °F 21% 30.12 in 10.0 mi Calm Calm - N/A   Clear
3:15 PM 96.1 °F - 49.8 °F 21% 30.11 in 10.0 mi North 8.1 mph - N/A   Scattered Clouds
3:35 PM 96.8 °F - 49.8 °F 20% 30.10 in 10.0 mi East 10.4 mph 17.3 mph N/A   Scattered Clouds
3:55 PM 95.7 °F - 49.3 °F 21% 30.08 in 10.0 mi Calm Calm - N/A   Scattered Clouds
4:15 PM 96.6 °F - 48.7 °F 20% 30.08 in 10.0 mi North 6.9 mph - N/A   Clear
4:35 PM 96.8 °F - 49.1 °F 20% 30.07 in 10.0 mi East 8.1 mph - N/A   Clear
4:55 PM 96.3 °F - 48.4 °F 20% 30.06 in 10.0 mi NNW 5.8 mph - N/A   Clear
5:15 PM 97.3 °F - 48.4 °F 19% 30.06 in 10.0 mi NE 5.8 mph 9.2 mph N/A   Clear
5:35 PM 97.2 °F - 48.6 °F 19% 30.04 in 10.0 mi NNE 3.5 mph - N/A   Clear
5:55 PM 95.7 °F - 48.2 °F 20% 30.04 in 10.0 mi SE 9.2 mph - N/A   Clear
6:15 PM 96.4 °F - 47.7 °F 19% 30.03 in 10.0 mi ESE 6.9 mph - N/A   Clear
6:35 PM 95.9 °F - 47.8 °F 19% 30.03 in 10.0 mi ESE 8.1 mph - N/A   Clear
6:55 PM 95.7 °F - 46.9 °F 19% 30.03 in 10.0 mi East 6.9 mph - N/A   Clear
7:15 PM 95.2 °F - 46.4 °F 19% 30.04 in 10.0 mi ESE 6.9 mph - N/A   Clear
7:35 PM 94.8 °F - 45.9 °F 19% 30.04 in 10.0 mi SE 6.9 mph - N/A   Clear
7:55 PM 94.1 °F - 45.7 °F 19% 30.04 in 10.0 mi SE 8.1 mph - N/A   Scattered Clouds
8:15 PM 92.7 °F - 46.4 °F 20% 30.05 in 10.0 mi SE 11.5 mph - N/A   Mostly Cloudy
8:35 PM 91.6 °F - 45.7 °F 20% 30.06 in 10.0 mi SE 9.2 mph - N/A   Mostly Cloudy
8:55 PM 90.7 °F - 46.4 °F 22% 30.06 in 10.0 mi SE 11.5 mph - N/A   Scattered Clouds
9:15 PM 89.6 °F - 45.9 °F 22% 30.08 in 10.0 mi ESE 9.2 mph - N/A   Mostly Cloudy
9:35 PM 89.4 °F - 44.2 °F 21% 30.08 in 10.0 mi ESE 11.5 mph - N/A   Mostly Cloudy
9:55 PM 88.0 °F - 46.4 °F 24% 30.08 in 10.0 mi ESE 10.4 mph - N/A   Scattered Clouds
10:15 PM 86.4 °F - 48.0 °F 26% 30.08 in 10.0 mi SE 9.2 mph - N/A   Clear
10:35 PM 86.0 °F - 49.3 °F 28% 30.10 in 10.0 mi SE 9.2 mph - N/A   Clear
10:55 PM 85.5 °F - 49.3 °F 28% 30.11 in 10.0 mi SE 8.1 mph - N/A   Clear
11:15 PM 85.1 °F - 49.6 °F 29% 30.11 in 10.0 mi SE 10.4 mph - N/A   Clear
11:35 PM 84.4 °F - 50.0 °F 30% 30.12 in 10.0 mi SSE 10.4 mph - N/A   Clear
11:55 PM 83.3 °F 82.0 °F 53.1 °F 35% 30.14 in 7.0 mi South 12.7 mph - N/A   Clear